TimeEDT,TemperatureF,Dew PointF,Humidity,Sea Level PressureIn,VisibilityMPH,Wind Direction,Wind SpeedMPH,Gust SpeedMPH,PrecipitationIn,Events,Conditions,WindDirDegrees,DateUTC
12:55 AM,62.1,59.0,90,29.83,10.0,Calm,Calm,-,N/A,,Partly Cloudy,0,2013-09-01 04:55:00
1:55 AM,61.0,59.0,93,29.85,10.0,Calm,Calm,-,N/A,,Clear,0,2013-09-01 05:55:00
2:55 AM,61.0,59.0,93,29.81,10.0,East,3.5,-,N/A,,Clear,90,2013-09-01 06:55:00
3:29 AM,61.0,59.0,93,29.82,9.0,East,3.5,-,N/A,,Partly Cloudy,80,2013-09-01 07:29:00
3:55 AM,62.1,60.1,93,29.80,9.0,East,3.5,-,N/A,,Mostly Cloudy,100,2013-09-01 07:55:00
4:02 AM,62.1,60.1,93,29.81,9.0,East,3.5,-,N/A,,Mostly Cloudy,90,2013-09-01 08:02:00
4:55 AM,62.1,60.1,93,29.81,8.0,East,3.5,-,N/A,,Overcast,80,2013-09-01 08:55:00
5:55 AM,63.0,61.0,93,29.79,6.0,ESE,5.8,-,N/A,,Overcast,110,2013-09-01 09:55:00
6:55 AM,64.0,62.1,93,29.77,5.0,ESE,8.1,-,N/A,,Overcast,120,2013-09-01 10:55:00
7:41 AM,64.0,62.1,93,29.78,5.0,ESE,6.9,-,N/A,,Overcast,120,2013-09-01 11:41:00
7:55 AM,64.0,62.1,93,29.78,4.0,ESE,6.9,-,N/A,,Overcast,110,2013-09-01 11:55:00
8:38 AM,64.9,62.1,90,29.79,5.0,SE,6.9,-,N/A,,Overcast,130,2013-09-01 12:38:00
8:55 AM,64.9,62.1,90,29.79,5.0,SE,9.2,-,N/A,,Overcast,140,2013-09-01 12:55:00
9:55 AM,64.9,63.0,93,29.81,5.0,ESE,6.9,-,N/A,,Overcast,120,2013-09-01 13:55:00
10:55 AM,66.0,63.0,90,29.79,6.0,SE,9.2,-,N/A,,Overcast,130,2013-09-01 14:55:00
11:55 AM,66.9,62.1,84,29.78,7.0,SE,11.5,-,N/A,,Overcast,130,2013-09-01 15:55:00
12:15 PM,66.9,62.1,84,29.78,7.0,SE,11.5,17.3,N/A,,Overcast,130,2013-09-01 16:15:00
12:32 PM,68.0,63.0,84,29.77,7.0,SE,11.5,18.4,N/A,,Mostly Cloudy,140,2013-09-01 16:32:00
12:47 PM,68.0,63.0,84,29.77,7.0,SE,9.2,-,N/A,,Mostly Cloudy,130,2013-09-01 16:47:00
12:55 PM,66.9,62.1,84,29.76,7.0,SSE,13.8,18.4,N/A,,Mostly Cloudy,150,2013-09-01 16:55:00
1:24 PM,66.9,62.1,84,29.77,7.0,SE,9.2,-,0.00,Rain,Light Rain,140,2013-09-01 17:24:00
1:55 PM,66.9,62.1,84,29.77,7.0,SSE,6.9,-,0.01,Rain,Light Rain,160,2013-09-01 17:55:00
2:07 PM,66.9,62.1,84,29.78,7.0,SSE,8.1,-,0.00,Rain,Light Rain,160,2013-09-01 18:07:00
2:24 PM,66.0,63.0,90,29.79,3.0,South,6.9,-,0.02,Rain,Light Rain,180,2013-09-01 18:24:00
2:40 PM,66.0,63.0,90,29.78,4.0,SSE,9.2,-,0.03,Rain,Light Rain,150,2013-09-01 18:40:00
2:50 PM,64.4,62.6,94,29.78,4.0,SSE,8.1,-,0.05,Rain,Rain,150,2013-09-01 18:50:00
2:51 PM,64.9,63.0,93,29.77,4.0,SSE,8.1,-,0.05,Rain,Rain,150,2013-09-01 18:51:00
3:13 PM,64.9,63.0,93,29.74,3.0,SE,8.1,-,0.05,Rain,Light Rain,140,2013-09-01 19:13:00
3:55 PM,66.0,63.0,90,29.71,6.0,SE,11.5,20.7,0.08,,Scattered Clouds,140,2013-09-01 19:55:00
4:15 PM,66.9,64.0,90,29.71,8.0,SE,10.4,-,N/A,,Mostly Cloudy,140,2013-09-01 20:15:00
4:55 PM,68.0,63.0,84,29.69,9.0,ESE,12.7,18.4,N/A,,Overcast,120,2013-09-01 20:55:00
5:03 PM,68.0,63.0,84,29.69,9.0,SE,12.7,19.6,N/A,,Mostly Cloudy,130,2013-09-01 21:03:00
5:51 PM,68.0,62.6,83,29.68,10.0,SSE,11.5,20.7,N/A,,Mostly Cloudy,150,2013-09-01 21:51:00
5:55 PM,68.0,62.1,81,29.68,10.0,SSE,9.2,20.7,N/A,,Mostly Cloudy,150,2013-09-01 21:55:00
6:55 PM,66.9,63.0,87,29.68,6.0,SSE,9.2,-,0.00,Rain,Light Rain,150,2013-09-01 22:55:00
7:05 PM,66.9,63.0,87,29.70,3.0,South,6.9,-,0.02,Rain,Rain,190,2013-09-01 23:05:00
7:13 PM,66.0,63.0,90,29.69,2.0,South,10.4,-,0.04,Rain,Rain,170,2013-09-01 23:13:00
7:21 PM,66.0,63.0,90,29.69,3.0,SSE,9.2,-,0.06,Rain,Light Rain,160,2013-09-01 23:21:00
7:49 PM,66.2,62.6,88,29.70,1.5,South,11.5,-,0.06,Rain,Heavy Rain,180,2013-09-01 23:49:00
7:55 PM,64.9,63.0,93,29.69,0.8,South,10.4,-,0.22,Rain,Heavy Rain,170,2013-09-01 23:55:00
8:01 PM,66.0,63.0,90,29.69,2.5,South,9.2,-,0.02,Rain,Light Rain,170,2013-09-02 00:01:00
8:03 PM,66.0,63.0,90,29.69,5.0,South,5.8,-,0.02,Rain,Light Rain,170,2013-09-02 00:03:00
8:10 PM,66.0,63.0,90,29.69,7.0,South,6.9,-,0.02,,Overcast,190,2013-09-02 00:10:00
8:55 PM,64.0,61.0,90,29.70,10.0,West,8.1,-,0.02,Rain,Light Rain,280,2013-09-02 00:55:00
9:02 PM,64.0,61.0,90,29.71,9.0,West,10.4,-,0.00,Rain,Light Rain,280,2013-09-02 01:02:00
9:09 PM,64.0,61.0,90,29.71,10.0,WNW,10.4,-,0.00,Rain,Light Rain,300,2013-09-02 01:09:00
9:55 PM,62.1,60.1,93,29.71,10.0,WNW,15.0,20.7,0.00,,Overcast,290,2013-09-02 01:55:00
10:55 PM,60.1,57.0,90,29.72,10.0,WNW,13.8,24.2,0.00,,Overcast,290,2013-09-02 02:55:00
11:55 PM,57.0,55.0,93,29.72,5.0,WNW,13.8,20.7,0.00,Rain,Light Rain,290,2013-09-02 03:55:00